星链-32285 (STARLINK-32285)

导读 | 星芒AI

STARLINK-32285 是 SpaceX Starlink 卫星互联网项目中的一颗低轨卫星,属于第6批部署的星链卫星之一。该卫星于2022年发射,运行在约550公里高度的近地轨道,旨在为全球提供高速互联网服务。它采用先进的相控阵天线和激光通信技术,支持高带宽、低延迟的网络连接。作为星链星座的一部分,STARLINK-32285 有助于提升偏远地区的网络覆盖,并增强整体系统的冗余与稳定性。

基本信息
目录编号:
60355
目录名称:
STARLINK-32285
国际标识:
2024-138A
轨道中心:
EARTH
卫星名称:
星链-32285 (STARLINK-32285)
卫星全名:
星链-32285 (STARLINK-32285)
卫星状态:
在轨 (已飞行456 天)
发射日期:
2024-08-04 UTC
国别 :
美国 (US)
星等 :
--
轨道信息
数据来源 国际轨道数据
星历时间: 2025-11-02T06:37:18+0800
1天前
查看轨道信息
半长轴: 6853.416km
偏心率: 0.0001471
轨道倾角: 53.159°
近地点辐角 88.175°
升交点赤经 182.644°
平近点角 271.942°
近地点: 474.272km
远地点: 476.29km
周期: 94.107分钟
每日圈数: 15.301786
详细信息
卫星平台:
Starlink v2.0 mini
运营商:
太空探索技术公司
运营商所在国:
美国
制造商(研发单位):
太空探索技术公司
制造商所在国:
美国
使用方式:
暂无
卫星简介
星链(Starlink)计划是由太空探索技术公司(SpaceX)提出的一个巨型低轨卫星互联网星座项目,计划在2019年至2024年间在太空搭建由约1.2万颗卫星组成的“星链”网络,其中1584颗将部署在地球上空550千米处的近地轨道,并从2020年开始工作。该卫星仍在工作。
2D轨道图
3D轨道图
轨道高度分析图
轨道倾角分析图
轨道综合分析图
查看轨道综合分析图